When you browse on this site, cookies collect data to enhance your experience and personalize the content and advertising you see.
Visit our Privacy Policy to learn more. By continuing to use the site, you agree to this use of cookies and data.
  • In United Kingdom
  • List of Countries
  • For 7 days
  • Water Temperature
  • Weather Map
  • Weather Widgets
  • user-avatar
    Login

    Hourly Weather Sinemorec

    Today, 16 September, Monday

    Time Temperature Precipitation Wind Pressure Humidity
    00:00 +16°C° 0 mm 2 mps 764 mmHg 83%
    01:00 +15°C° 0 mm 2 mps 763 mmHg 84%
    02:00 +15°C° 0 mm 2 mps 763 mmHg 88%
    03:00 +15°C° 0 mm 2 mps 763 mmHg 89%
    04:00 +15°C° 0 mm 2 mps 762 mmHg 89%
    05:00 +15°C° 0 mm 2 mps 762 mmHg 90%
    06:00 +16°C° 0 mm 2 mps 762 mmHg 82%
    07:00 +18°C° 0 mm 2 mps 762 mmHg 75%
    08:00 +20°C° 0 mm 2 mps 762 mmHg 67%
    09:00 +23°C° 0 mm 2 mps 762 mmHg 58%
    10:00 +25°C° 0 mm 2 mps 761 mmHg 49%
    11:00 +26°C° 0 mm 2 mps 761 mmHg 41%
    12:00 +27°C° 0 mm 2 mps 761 mmHg 40%
    13:00 +27°C° 0 mm 2 mps 760 mmHg 39%
    14:00 +27°C° 0 mm 2 mps 760 mmHg 38%
    15:00 +26°C° 0 mm 2 mps 759 mmHg 42%
    16:00 +25°C° 0 mm 3 mps 759 mmHg 45%
    17:00 +24°C° 0 mm 3 mps 758 mmHg 49%
    18:00 +22°C° 0 mm 3 mps 759 mmHg 52%
    19:00 +20°C° 0 mm 3 mps 759 mmHg 56%
    20:00 +18°C° 0 mm 3 mps 759 mmHg 60%
    21:00 +18°C° 0 mm 3 mps 759 mmHg 58%
    22:00 +18°C° 0 mm 3 mps 759 mmHg 55%
    23:00 +18°C° 0 mm 2 mps 759 mmHg 53%

    Tomorrow, 17 September, Tuesday

    Time Temperature Precipitation Wind Pressure Humidity
    00:00 +18°C° 0 mm 3 mps 758 mmHg 53%
    01:00 +18°C° 0 mm 3 mps 758 mmHg 53%
    02:00 +18°C° 0 mm 3 mps 758 mmHg 53%
    03:00 +18°C° 0 mm 2 mps 758 mmHg 52%
    04:00 +18°C° 0 mm 2 mps 758 mmHg 52%
    05:00 +18°C° 0 mm 2 mps 758 mmHg 51%
    06:00 +20°C° 0 mm 2 mps 758 mmHg 47%
    07:00 +23°C° 0 mm 1 mps 758 mmHg 43%
    08:00 +25°C° 0 mm 1 mps 758 mmHg 39%
    09:00 +27°C° 0 mm 2 mps 758 mmHg 35%
    10:00 +29°C° 0 mm 2 mps 758 mmHg 30%
    11:00 +32°C° 0 mm 2 mps 758 mmHg 26%
    12:00 +32°C° 0 mm 2 mps 758 mmHg 26%
    13:00 +34°C° 0 mm 3 mps 757 mmHg 25%
    14:00 +34°C° 0 mm 3 mps 757 mmHg 25%
    15:00 +33°C° 0 mm 3 mps 757 mmHg 28%
    16:00 +32°C° 0 mm 4 mps 756 mmHg 30%
    17:00 +30°C° 0 mm 4 mps 756 mmHg 33%
    18:00 +28°C° 0 mm 4 mps 756 mmHg 35%
    19:00 +26°C° 0 mm 4 mps 756 mmHg 37%
    20:00 +23°C° 0 mm 4 mps 757 mmHg 40%
    21:00 +25°C° 0 mm 4 mps 757 mmHg 39%
    22:00 +25°C° 0 mm 4 mps 756 mmHg 39%
    23:00 +26°C° 0 mm 4 mps 756 mmHg 38%

    Day after tomorrow, 18 September, Wednesday

    Time Temperature Precipitation Wind Pressure Humidity
    00:00 +26°C° 0 mm 4 mps 756 mmHg 39%
    01:00 +25°C° 0 mm 4 mps 756 mmHg 39%
    02:00 +25°C° 0 mm 4 mps 756 mmHg 40%
    03:00 +25°C° 0 mm 4 mps 756 mmHg 41%
    04:00 +25°C° 0 mm 4 mps 756 mmHg 41%
    05:00 +23°C° 0 mm 4 mps 755 mmHg 42%
    06:00 +26°C° 0 mm 4 mps 756 mmHg 40%
    07:00 +27°C° 0 mm 4 mps 756 mmHg 39%
    08:00 +28°C° 0 mm 4 mps 756 mmHg 37%
    09:00 +30°C° 0 mm 4 mps 756 mmHg 33%
    10:00 +33°C° 0 mm 4 mps 756 mmHg 29%
    11:00 +35°C° 0 mm 4 mps 756 mmHg 25%
    12:00 +35°C° 0 mm 3 mps 756 mmHg 24%
    13:00 +36°C° 0 mm 3 mps 756 mmHg 24%
    14:00 +36°C° 0 mm 3 mps 756 mmHg 23%
    15:00 +32°C° 0 mm 5 mps 757 mmHg 37%
    16:00 +28°C° 0 mm 7 mps 757 mmHg 51%
    17:00 +23°C° 0 mm 9 mps 757 mmHg 65%
    18:00 +22°C° 0 mm 9 mps 759 mmHg 69%
    19:00 +21°C° 0 mm 8 mps 760 mmHg 73%
    20:00 +20°C° 0 mm 8 mps 761 mmHg 76%
    21:00 +20°C° 0 mm 7 mps 761 mmHg 78%
    22:00 +20°C° 0 mm 6 mps 761 mmHg 80%
    23:00 +19°C° 0 mm 6 mps 762 mmHg 81%

    19 September, Thursday

    Time Temperature Precipitation Wind Pressure Humidity
    00:00 +19°C° 0 mm 5 mps 762 mmHg 80%
    01:00 +19°C° 0 mm 5 mps 762 mmHg 79%
    02:00 +19°C° 0 mm 5 mps 762 mmHg 77%
    03:00 +19°C° 0 mm 5 mps 762 mmHg 75%
    04:00 +19°C° 0 mm 5 mps 762 mmHg 73%
    05:00 +19°C° 0 mm 5 mps 762 mmHg 72%
    06:00 +20°C° 0 mm 5 mps 762 mmHg 69%
    07:00 +20°C° 0 mm 5 mps 762 mmHg 67%
    08:00 +21°C° 0 mm 5 mps 762 mmHg 64%
    09:00 +22°C° 0 mm 5 mps 762 mmHg 60%
    10:00 +22°C° 0 mm 5 mps 762 mmHg 56%
    11:00 +23°C° 0 mm 5 mps 762 mmHg 53%
    12:00 +23°C° 0 mm 6 mps 762 mmHg 53%
    13:00 +23°C° 0 mm 6 mps 762 mmHg 54%
    14:00 +23°C° 0 mm 6 mps 761 mmHg 54%
    15:00 +22°C° 0 mm 6 mps 761 mmHg 57%
    16:00 +22°C° 0 mm 5 mps 761 mmHg 61%
    17:00 +21°C° 0 mm 5 mps 761 mmHg 64%
    18:00 +20°C° 0 mm 5 mps 761 mmHg 68%
    19:00 +19°C° 0 mm 5 mps 761 mmHg 73%
    20:00 +17°C° 0 mm 5 mps 762 mmHg 78%
    21:00 +18°C° 0 mm 4 mps 762 mmHg 77%
    22:00 +18°C° 0 mm 4 mps 762 mmHg 76%
    23:00 +18°C° 0 mm 4 mps 762 mmHg 75%

    20 September, Friday

    Time Temperature Precipitation Wind Pressure Humidity
    00:00 +18°C° 0 mm 3 mps 762 mmHg 74%
    01:00 +18°C° 0 mm 3 mps 762 mmHg 74%
    02:00 +18°C° 0 mm 3 mps 761 mmHg 74%
    03:00 +18°C° 0.4 mm 3 mps 761 mmHg 79%
    04:00 +17°C° 0.4 mm 4 mps 761 mmHg 85%
    05:00 +15°C° 0.4 mm 4 mps 761 mmHg 91%
    06:00 +15°C° 0.2 mm 4 mps 761 mmHg 87%
    07:00 +15°C° 0.2 mm 4 mps 761 mmHg 83%
    08:00 +15°C° 0.2 mm 4 mps 761 mmHg 79%
    09:00 +16°C° 0 mm 5 mps 762 mmHg 68%
    10:00 +17°C° 0 mm 5 mps 762 mmHg 58%
    11:00 +19°C° 0 mm 5 mps 762 mmHg 48%
    12:00 +20°C° 0 mm 6 mps 762 mmHg 41%
    13:00 +22°C° 0 mm 6 mps 762 mmHg 33%
    14:00 +23°C° 0 mm 6 mps 761 mmHg 26%
    15:00 +22°C° 0 mm 6 mps 761 mmHg 35%
    16:00 +21°C° 0 mm 6 mps 762 mmHg 43%
    17:00 +20°C° 0 mm 6 mps 762 mmHg 52%
    18:00 +17°C° 0 mm 6 mps 762 mmHg 56%
    19:00 +16°C° 0 mm 5 mps 763 mmHg 59%
    20:00 +15°C° 0 mm 5 mps 763 mmHg 63%
    21:00 +15°C° 0 mm 5 mps 764 mmHg 63%
    22:00 +14°C° 0 mm 4 mps 764 mmHg 63%
    23:00 +14°C° 0 mm 4 mps 764 mmHg 63%

    21 September, Saturday

    Time Temperature Precipitation Wind Pressure Humidity
    00:00 +14°C° 0 mm 4 mps 764 mmHg 63%
    01:00 +14°C° 0 mm 4 mps 764 mmHg 62%
    02:00 +14°C° 0 mm 4 mps 765 mmHg 62%
    03:00 +13°C° 0 mm 4 mps 765 mmHg 64%
    04:00 +13°C° 0 mm 5 mps 765 mmHg 66%
    05:00 +13°C° 0 mm 5 mps 765 mmHg 68%
    06:00 +14°C° 0 mm 6 mps 766 mmHg 62%
    07:00 +15°C° 0 mm 6 mps 766 mmHg 57%
    08:00 +16°C° 0 mm 7 mps 767 mmHg 52%
    09:00 +16°C° 0 mm 7 mps 767 mmHg 48%
    10:00 +17°C° 0 mm 7 mps 767 mmHg 45%
    11:00 +18°C° 0 mm 7 mps 767 mmHg 41%
    12:00 +19°C° 0 mm 6 mps 767 mmHg 40%
    13:00 +19°C° 0 mm 6 mps 767 mmHg 39%
    14:00 +19°C° 0 mm 6 mps 767 mmHg 39%
    15:00 +17°C° 0 mm 6 mps 767 mmHg 39%
    16:00 +17°C° 0 mm 5 mps 767 mmHg 39%
    17:00 +16°C° 0 mm 5 mps 767 mmHg 40%
    18:00 +15°C° 0 mm 5 mps 767 mmHg 46%
    19:00 +13°C° 0 mm 4 mps 767 mmHg 52%
    20:00 +12°C° 0 mm 4 mps 767 mmHg 57%
    21:00 +12°C° 0 mm 4 mps 768 mmHg 57%
    22:00 +12°C° 0 mm 4 mps 768 mmHg 56%
    23:00 +11°C° 0 mm 4 mps 768 mmHg 55%
    Show more